Time,TemperatureF,DewpointF,PressureIn,WindDirection,WindDirectionDegrees,WindSpeedMPH,WindSpeedGustMPH,Humidity,HourlyPrecipIn,Conditions,Clouds,dailyrainin,SolarRadiationWatts/m^2,SoftwareType,DateUTC
2013-02-14 00:22:00,26.0,22.0,-100.00,NE,36,3.0,8.0,83,0.00,,,0.52,0.000000,,2013-02-14 06:22:00,
2013-02-14 00:32:00,26.0,22.0,-100.00,NE,36,3.0,8.0,83,0.00,,,0.52,0.000000,,2013-02-14 06:32:00,
2013-02-14 00:42:00,26.0,22.0,-100.00,NE,36,3.0,8.0,83,0.00,,,0.52,0.000000,,2013-02-14 06:42:00,
2013-02-14 00:52:00,26.0,22.0,-100.00,NE,36,3.0,8.0,83,0.00,,,0.52,0.000000,,2013-02-14 06:52:00,
2013-02-14 01:01:00,26.0,22.0,-100.00,NE,36,3.0,8.0,83,0.00,,,0.52,0.000000,,2013-02-14 07:01:00,
2013-02-14 01:32:00,25.0,21.0,-100.00,NE,51,2.0,8.0,84,0.00,,,0.52,0.000000,,2013-02-14 07:32:00,
2013-02-14 01:42:00,25.0,21.0,-100.00,NE,51,2.0,8.0,84,0.00,,,0.52,0.000000,,2013-02-14 07:42:00,
2013-02-14 01:52:00,25.0,21.0,-100.00,NE,51,2.0,8.0,84,0.00,,,0.52,0.000000,,2013-02-14 07:52:00,
2013-02-14 02:01:00,25.0,21.0,-100.00,NE,51,2.0,8.0,84,0.00,,,0.52,0.000000,,2013-02-14 08:01:00,
2013-02-14 02:32:00,25.0,21.0,-100.00,NNE,22,4.0,9.0,83,0.00,,,0.52,0.000000,,2013-02-14 08:32:00,
2013-02-14 02:43:00,25.0,21.0,-100.00,NNE,22,4.0,9.0,83,0.00,,,0.52,0.000000,,2013-02-14 08:43:00,
2013-02-14 02:52:00,25.0,21.0,-100.00,NNE,22,4.0,9.0,83,0.00,,,0.52,0.000000,,2013-02-14 08:52:00,
2013-02-14 03:01:00,25.0,21.0,-100.00,NNE,22,4.0,9.0,83,0.00,,,0.52,0.000000,,2013-02-14 09:01:00,
2013-02-14 03:02:00,25.0,21.0,-100.00,NNE,24,3.0,8.0,83,0.00,,,0.52,0.000000,,2013-02-14 09:02:00,
2013-02-14 03:32:00,25.0,21.0,-100.00,NNE,24,3.0,8.0,83,0.00,,,0.52,0.000000,,2013-02-14 09:32:00,
2013-02-14 03:42:00,25.0,21.0,-100.00,NNE,24,3.0,8.0,83,0.00,,,0.52,0.000000,,2013-02-14 09:42:00,
2013-02-14 03:52:00,25.0,21.0,-100.00,NNE,24,3.0,8.0,83,0.00,,,0.52,0.000000,,2013-02-14 09:52:00,
2013-02-14 04:02:00,24.0,21.0,-100.00,North,1,2.0,8.0,88,0.00,,,0.52,0.000000,,2013-02-14 10:02:00,
2013-02-14 04:22:00,24.0,21.0,-100.00,North,1,2.0,8.0,88,0.00,,,0.52,0.000000,,2013-02-14 10:22:00,
2013-02-14 04:32:00,24.0,21.0,-100.00,North,1,2.0,8.0,88,0.00,,,0.52,0.000000,,2013-02-14 10:32:00,
2013-02-14 04:42:00,24.0,21.0,-100.00,North,1,2.0,8.0,88,0.00,,,0.52,0.000000,,2013-02-14 10:42:00,
2013-02-14 04:52:00,24.0,21.0,-100.00,North,1,2.0,8.0,88,0.00,,,0.52,0.000000,,2013-02-14 10:52:00,
2013-02-14 05:02:00,23.0,21.0,-100.00,NW,322,3.0,6.0,91,0.00,,,0.52,0.000000,,2013-02-14 11:02:00,
2013-02-14 05:32:00,23.0,21.0,-100.00,NW,322,3.0,6.0,91,0.00,,,0.52,0.000000,,2013-02-14 11:32:00,
2013-02-14 05:42:00,23.0,21.0,-100.00,NW,322,3.0,6.0,91,0.00,,,0.52,0.000000,,2013-02-14 11:42:00,
2013-02-14 05:52:00,23.0,21.0,-100.00,NW,322,3.0,6.0,91,0.00,,,0.52,0.000000,,2013-02-14 11:52:00,
2013-02-14 06:32:00,24.0,21.0,-100.00,NW,304,3.0,6.0,89,0.00,,,0.52,0.000000,,2013-02-14 12:32:00,
2013-02-14 06:42:00,24.0,21.0,-100.00,NW,304,3.0,6.0,89,0.00,,,0.52,0.000000,,2013-02-14 12:42:00,
2013-02-14 06:53:00,24.0,21.0,-100.00,NW,304,3.0,6.0,89,0.00,,,0.52,0.000000,,2013-02-14 12:53:00,
2013-02-14 07:01:00,24.0,21.0,-100.00,NW,304,3.0,6.0,89,0.00,,,0.52,0.000000,,2013-02-14 13:01:00,
2013-02-14 07:32:00,24.0,21.0,-100.00,NW,322,5.0,12.0,89,0.00,,,0.52,0.000000,,2013-02-14 13:32:00,
2013-02-14 07:42:00,24.0,21.0,-100.00,NW,322,5.0,12.0,89,0.00,,,0.52,0.000000,,2013-02-14 13:42:00,
2013-02-14 07:52:00,24.0,21.0,-100.00,NW,322,5.0,12.0,89,0.00,,,0.52,0.000000,,2013-02-14 13:52:00,
2013-02-14 08:01:00,24.0,21.0,-100.00,NW,322,5.0,12.0,89,0.00,,,0.52,0.000000,,2013-02-14 14:01:00,
2013-02-14 08:21:00,24.0,21.0,-100.00,NNW,327,4.0,11.0,89,0.00,,,0.52,8.000000,,2013-02-14 14:21:00,
2013-02-14 08:32:00,24.0,21.0,-100.00,NNW,327,4.0,11.0,89,0.00,,,0.52,8.000000,,2013-02-14 14:32:00,
2013-02-14 08:42:00,24.0,21.0,-100.00,NNW,327,4.0,11.0,89,0.00,,,0.52,8.000000,,2013-02-14 14:42:00,
2013-02-14 08:52:00,24.0,21.0,-100.00,NNW,327,4.0,11.0,89,0.00,,,0.52,8.000000,,2013-02-14 14:52:00,
2013-02-14 09:01:00,24.0,21.0,-100.00,NNW,327,4.0,11.0,89,0.00,,,0.52,8.000000,,2013-02-14 15:01:00,
2013-02-14 09:32:00,26.0,19.0,-100.00,NNW,331,5.0,12.0,76,0.00,,,0.52,63.000000,,2013-02-14 15:32:00,
2013-02-14 09:42:00,26.0,19.0,-100.00,NNW,331,5.0,12.0,76,0.00,,,0.52,63.000000,,2013-02-14 15:42:00,
2013-02-14 09:52:00,26.0,19.0,-100.00,NNW,331,5.0,12.0,76,0.00,,,0.52,63.000000,,2013-02-14 15:52:00,
2013-02-14 10:01:00,26.0,19.0,-100.00,NNW,331,5.0,12.0,76,0.00,,,0.52,63.000000,,2013-02-14 16:01:00,
2013-02-14 10:22:00,29.0,21.0,-100.00,NNW,343,5.0,13.0,73,0.00,,,0.52,196.000000,,2013-02-14 16:22:00,
2013-02-14 10:32:00,29.0,21.0,-100.00,NNW,343,5.0,13.0,73,0.00,,,0.52,196.000000,,2013-02-14 16:32:00,
2013-02-14 10:42:00,29.0,21.0,-100.00,NNW,343,5.0,13.0,73,0.00,,,0.52,196.000000,,2013-02-14 16:42:00,
2013-02-14 10:52:00,29.0,21.0,-100.00,NNW,343,5.0,13.0,73,0.00,,,0.52,196.000000,,2013-02-14 16:52:00,
2013-02-14 11:01:00,29.0,21.0,-100.00,NNW,343,5.0,13.0,73,0.00,,,0.52,196.000000,,2013-02-14 17:01:00,
2013-02-14 11:32:00,28.0,20.0,-100.00,NNW,342,6.0,13.0,70,0.01,,,0.50,231.000000,,2013-02-14 17:32:00,
2013-02-14 11:42:00,28.0,20.0,-100.00,NNW,342,6.0,13.0,70,0.01,,,0.50,231.000000,,2013-02-14 17:42:00,
2013-02-14 11:52:00,28.0,20.0,-100.00,NNW,342,6.0,13.0,70,0.01,,,0.50,231.000000,,2013-02-14 17:52:00,
2013-02-14 12:01:00,28.0,20.0,-100.00,NNW,342,6.0,13.0,70,0.01,,,0.50,231.000000,,2013-02-14 18:01:00,
2013-02-14 12:02:00,27.0,21.0,-100.00,North,349,5.0,12.0,77,0.00,,,0.44,165.000000,,2013-02-14 18:02:00,
2013-02-14 12:32:00,27.0,21.0,-100.00,North,349,5.0,12.0,77,0.00,,,0.44,165.000000,,2013-02-14 18:32:00,
2013-02-14 12:42:00,27.0,21.0,-100.00,North,349,5.0,12.0,77,0.00,,,0.44,165.000000,,2013-02-14 18:42:00,
2013-02-14 12:52:00,27.0,21.0,-100.00,North,349,5.0,12.0,77,0.00,,,0.44,165.000000,,2013-02-14 18:52:00,
2013-02-14 13:32:00,23.0,18.0,-100.00,NNW,343,6.0,15.0,80,0.00,,,0.33,134.000000,,2013-02-14 19:32:00,
2013-02-14 13:42:00,23.0,18.0,-100.00,NNW,343,6.0,15.0,80,0.00,,,0.33,134.000000,,2013-02-14 19:42:00,
2013-02-14 13:52:00,23.0,18.0,-100.00,NNW,343,6.0,15.0,80,0.00,,,0.33,134.000000,,2013-02-14 19:52:00,
2013-02-14 14:01:00,23.0,18.0,-100.00,NNW,343,6.0,15.0,80,0.00,,,0.33,134.000000,,2013-02-14 20:01:00,
2013-02-14 14:02:00,21.0,15.0,-100.00,North,1,4.0,17.0,77,0.00,,,0.17,131.000000,,2013-02-14 20:02:00,
2013-02-14 14:22:00,21.0,15.0,-100.00,North,1,4.0,17.0,77,0.00,,,0.17,131.000000,,2013-02-14 20:22:00,
2013-02-14 14:32:00,21.0,15.0,-100.00,North,1,4.0,17.0,77,0.00,,,0.17,131.000000,,2013-02-14 20:32:00,
2013-02-14 14:42:00,21.0,15.0,-100.00,North,1,4.0,17.0,77,0.00,,,0.17,131.000000,,2013-02-14 20:42:00,
2013-02-14 14:52:00,21.0,15.0,-100.00,North,1,4.0,17.0,77,0.00,,,0.17,131.000000,,2013-02-14 20:52:00,
2013-02-14 15:02:00,20.0,14.0,-100.00,North,356,5.0,12.0,78,0.00,,,0.05,95.000000,,2013-02-14 21:02:00,
2013-02-14 15:32:00,20.0,14.0,-100.00,North,356,5.0,12.0,78,0.00,,,0.05,95.000000,,2013-02-14 21:32:00,
2013-02-14 15:42:00,20.0,14.0,-100.00,North,356,5.0,12.0,78,0.00,,,0.05,95.000000,,2013-02-14 21:42:00,
2013-02-14 15:52:00,20.0,14.0,-100.00,North,356,5.0,12.0,78,0.00,,,0.05,95.000000,,2013-02-14 21:52:00,
2013-02-14 16:21:00,18.0,11.0,-100.00,NNW,342,5.0,17.0,75,0.00,,,0.02,72.000000,,2013-02-14 22:21:00,
2013-02-14 16:32:00,18.0,11.0,-100.00,NNW,342,5.0,17.0,75,0.00,,,0.02,72.000000,,2013-02-14 22:32:00,
2013-02-14 16:42:00,18.0,11.0,-100.00,NNW,342,5.0,17.0,75,0.00,,,0.02,72.000000,,2013-02-14 22:42:00,
2013-02-14 16:52:00,18.0,11.0,-100.00,NNW,342,5.0,17.0,75,0.00,,,0.02,72.000000,,2013-02-14 22:52:00,
2013-02-14 17:01:00,18.0,11.0,-100.00,NNW,342,5.0,17.0,75,0.00,,,0.02,72.000000,,2013-02-14 23:01:00,
2013-02-14 17:32:00,17.0,7.0,-100.00,NNW,328,7.0,13.0,63,0.00,,,0.01,36.000000,,2013-02-14 23:32:00,
2013-02-14 17:42:00,17.0,7.0,-100.00,NNW,328,7.0,13.0,63,0.00,,,0.01,36.000000,,2013-02-14 23:42:00,
2013-02-14 17:52:00,17.0,7.0,-100.00,NNW,328,7.0,13.0,63,0.00,,,0.01,36.000000,,2013-02-14 23:52:00,
2013-02-14 18:01:00,17.0,7.0,-100.00,NNW,328,7.0,13.0,63,0.00,,,0.01,36.000000,,2013-02-15 00:01:00,
2013-02-14 18:02:00,14.0,4.0,-100.00,NNW,328,3.0,12.0,65,0.00,,,0.01,6.000000,,2013-02-15 00:02:00,
2013-02-14 18:32:00,14.0,4.0,-100.00,NNW,328,3.0,12.0,65,0.00,,,0.01,6.000000,,2013-02-15 00:32:00,
2013-02-14 18:42:00,14.0,4.0,-100.00,NNW,328,3.0,12.0,65,0.00,,,0.01,6.000000,,2013-02-15 00:42:00,
2013-02-14 18:52:00,14.0,4.0,-100.00,NNW,328,3.0,12.0,65,0.00,,,0.01,6.000000,,2013-02-15 00:52:00,
2013-02-14 19:32:00,10.0,5.0,-100.00,WNW,298,1.0,3.0,79,0.00,,,0.01,0.000000,,2013-02-15 01:32:00,
2013-02-14 19:42:00,10.0,5.0,-100.00,WNW,298,1.0,3.0,79,0.00,,,0.01,0.000000,,2013-02-15 01:42:00,
2013-02-14 19:52:00,10.0,5.0,-100.00,WNW,298,1.0,3.0,79,0.00,,,0.01,0.000000,,2013-02-15 01:52:00,
2013-02-14 20:01:00,10.0,5.0,-100.00,WNW,298,1.0,3.0,79,0.00,,,0.01,0.000000,,2013-02-15 02:01:00,
2013-02-14 20:21:00,5.0,0.0,-100.00,NNW,331,1.0,3.0,81,0.00,,,0.01,0.000000,,2013-02-15 02:21:00,
2013-02-14 20:32:00,5.0,0.0,-100.00,NNW,331,1.0,3.0,81,0.00,,,0.01,0.000000,,2013-02-15 02:32:00,
2013-02-14 21:32:00,10.0,2.0,-100.00,NW,322,3.0,7.0,70,-99.99,,,0.01,0.000000,,2013-02-15 03:32:00,
2013-02-14 21:42:00,10.0,2.0,-100.00,NW,322,3.0,7.0,70,-99.99,,,0.01,0.000000,,2013-02-15 03:42:00,
2013-02-14 21:52:00,10.0,2.0,-100.00,NW,322,3.0,7.0,70,-99.99,,,0.01,0.000000,,2013-02-15 03:52:00,
2013-02-14 22:01:00,10.0,2.0,-100.00,NW,322,3.0,7.0,70,-99.99,,,0.01,0.000000,,2013-02-15 04:01:00,
2013-02-14 22:02:00,10.0,2.0,-100.00,NW,315,3.0,6.0,70,0.00,,,0.01,0.000000,,2013-02-15 04:02:00,
2013-02-14 22:22:00,10.0,2.0,-100.00,NW,315,3.0,6.0,70,0.00,,,0.01,0.000000,,2013-02-15 04:22:00,
2013-02-14 22:32:00,10.0,2.0,-100.00,NW,315,3.0,6.0,70,0.00,,,0.01,0.000000,,2013-02-15 04:32:00,
2013-02-14 22:42:00,10.0,2.0,-100.00,NW,315,3.0,6.0,70,0.00,,,0.01,0.000000,,2013-02-15 04:42:00,
2013-02-14 22:52:00,10.0,2.0,-100.00,NW,315,3.0,6.0,70,0.00,,,0.01,0.000000,,2013-02-15 04:52:00,
2013-02-14 23:02:00,4.0,-2.0,-100.00,WNW,303,1.0,6.0,76,0.00,,,0.01,0.000000,,2013-02-15 05:02:00,
2013-02-14 23:32:00,4.0,-2.0,-100.00,WNW,303,1.0,6.0,76,0.00,,,0.01,0.000000,,2013-02-15 05:32:00,
2013-02-14 23:42:00,4.0,-2.0,-100.00,WNW,303,1.0,6.0,76,0.00,,,0.01,0.000000,,2013-02-15 05:42:00,
2013-02-14 23:52:00,4.0,-2.0,-100.00,WNW,303,1.0,6.0,76,0.00,,,0.01,0.000000,,2013-02-15 05:52:00,